GFSNE_sfc_rhum_057.txt.gz
RH
95 95 93 91 85 82 81 79 88 95 90 85 79 68 72 72 72 84 92 86 88 85 81 77 77 74 73 70 63 59 57 54 52 48 48 49 51 53
95 93 93 92 92 92 90 90 89 93 97 80 67 75 69 60 66 82 91 87 87 89 86 83 79 76 76 73 71 65 59 56 52 49 48 49 49 50
93 92 92 91 94 95 94 92 92 86 91 88 80 78 77 74 67 74 83 93 93 86 88 87 84 80 78 76 75 73 69 62 55 50 48 49 49 48
94 92 91 89 92 90 90 88 89 90 96 98 94 92 85 81 82 84 68 61 79 74 83 86 86 84 81 78 78 80 78 74 66 59 53 49 50 49
90 89 90 89 90 89 87 90 91 86 97 99 98 94 94 93 91 88 86 84 69 66 74 78 83 86 82 81 81 79 78 76 73 72 71 69 61 57
90 89 90 88 89 89 90 92 96 98 98 99 98 97 96 92 94 94 84 90 81 63 64 68 71 79 83 82 81 81 78 74 78 78 77 78 81 78
92 88 88 88 92 92 91 96 96 97 96 97 96 96 95 95 94 92 92 86 84 90 78 75 79 74 78 81 82 88 83 79 75 78 76 79 80 74
94 90 89 93 85 84 83 82 86 92 93 97 96 95 92 95 95 97 92 81 83 82 87 82 84 79 76 84 75 78 74 74 73 73 74 71 70 75
90 90 82 72 84 82 83 76 76 74 84 92 94 92 92 90 94 91 88 89 88 73 90 87 84 87 79 70 77 81 91 77 72 74 74 74 79 79
92 89 82 87 81 80 74 70 68 70 71 66 78 80 85 83 88 84 88 90 78 72 82 93 75 89 93 96 90 98 86 75 74 75 76 79 77 74
85 86 82 80 70 65 74 77 84 82 73 74 78 80 81 82 82 90 92 92 92 79 82 89 86 95 95 94 88 69 75 76 74 72 71 68 72 73
78 73 73 75 66 66 88 94 93 84 86 87 86 86 82 84 81 88 94 97 93 93 78 95 93 98 98 87 80 77 84 75 70 64 59 61 63 83
77 79 81 67 67 76 80 86 79 85 81 86 86 81 80 79 80 79 80 88 94 92 85 97 98 95 97 92 88 87 83 79 79 71 66 67 67 74
78 82 82 69 75 76 75 64 68 84 94 93 89 82 82 82 79 78 80 80 81 93 88 97 98 96 97 95 87 91 92 88 95 81 88 76 75 74
79 74 70 75 74 76 64 67 81 88 92 93 90 86 83 78 78 82 81 80 78 93 93 98 98 97 97 91 91 90 86 88 95 95 97 96 95 98
80 80 85 86 83 86 82 75 79 83 87 90 89 86 79 83 85 82 86 84 89 90 95 96 98 98 97 86 83 96 88 90 96 93 96 98 98 98
93 92 86 84 81 82 84 81 80 79 83 86 89 88 83 83 85 81 83 87 92 90 97 97 97 96 97 93 98 94 89 96 92 91 95 99 97 96
89 90 93 94 90 80 85 83 82 82 79 83 88 86 86 89 86 81 82 88 90 88 93 82 92 98 98 98 92 94 94 94 92 91 96 99 97 96
92 89 94 96 93 78 82 83 86 85 81 84 91 91 91 89 88 88 88 87 87 85 87 97 98 97 97 98 91 86 93 91 98 98 98 98 98 94
88 92 93 92 83 78 78 81 83 85 87 89 96 97 97 96 94 92 90 93 89 86 90 90 97 96 96 92 94 91 81 94 96 97 97 98 95 87
86 90 94 90 84 82 93 96 98 95 96 99 100 99 100 97 95 93 91 89 90 88 90 86 86 95 97 96 96 90 90 81 87 92 96 100 98 98
94 92 89 87 91 93 98 99 97 98 100 100 100 100 100 99 98 94 93 95 88 91 90 84 76 91 96 94 92 90 88 92 87 91 86 85 93 95
96 94 94 96 98 97 90 97 99 100 100 100 97 97 100 98 94 94 95 92 88 87 90 90 81 90 95 92 92 90 92 92 98 99 99 92 88 82

GFSNE_sfc_rhum_060.txt.gz
RH
99 96 92 94 91 84 80 81 88 93 89 80 74 67 65 68 69 73 77 78 85 87 89 86 81 77 74 72 70 67 62 63 59 57 56 52 51 51
98 95 94 94 94 91 88 88 87 90 95 84 76 69 67 62 67 73 76 76 86 88 90 90 88 84 80 77 76 74 69 68 63 66 58 54 52 51
98 96 94 94 94 94 94 93 93 93 96 86 78 79 78 78 74 74 74 81 84 87 87 87 89 89 87 83 79 78 76 75 70 76 63 63 53 52
96 94 93 88 93 92 91 90 88 88 90 96 90 87 86 83 82 84 73 65 74 73 82 84 85 86 87 88 86 83 80 76 77 75 74 72 53 53
92 92 91 91 94 94 92 92 89 82 93 96 95 92 91 89 87 85 83 83 71 68 76 80 81 81 82 84 87 86 83 81 80 80 87 74 64 58
92 90 90 90 91 89 88 91 90 94 94 93 95 94 93 87 88 89 78 81 80 63 68 72 76 75 76 76 80 83 84 83 81 79 87 86 80 78
94 93 94 91 91 89 88 95 92 88 86 86 89 92 89 89 85 87 86 77 75 73 74 76 74 75 75 74 73 77 81 83 82 90 97 84 86 82
98 95 96 96 92 89 87 84 80 85 84 89 88 85 77 81 86 88 88 86 80 71 78 74 72 72 70 72 74 78 77 82 90 97 87 90 86 81
96 95 85 79 87 82 83 75 68 67 76 83 79 76 82 78 86 89 90 90 88 74 79 83 70 74 66 62 75 78 81 82 85 92 96 84 77 80
94 86 86 84 81 74 64 60 65 68 71 70 78 79 82 82 88 84 86 87 79 74 81 90 71 75 68 73 81 81 82 84 92 98 89 75 78 80
84 83 80 75 72 68 61 67 76 78 69 65 66 70 73 74 72 84 83 83 84 71 71 82 77 78 74 77 76 81 80 88 94 87 73 76 76 75
73 74 78 69 69 75 84 84 80 79 71 65 70 75 72 74 68 77 84 94 89 80 76 88 74 83 81 78 72 77 81 80 81 74 68 62 65 61
72 72 71 69 74 80 80 76 77 71 69 71 69 72 71 69 69 68 71 82 90 86 70 78 83 82 91 84 74 74 86 85 74 60 63 62 64 64
73 79 80 74 79 76 72 71 72 75 82 81 80 75 73 72 66 67 70 74 75 83 75 84 95 92 94 89 90 79 73 73 71 58 69 65 70 71
80 76 75 81 76 72 70 73 79 81 84 87 83 79 76 70 66 76 78 75 74 76 67 79 96 96 95 92 91 89 70 64 78 75 79 81 78 82
85 84 89 86 83 84 77 75 74 76 80 83 81 79 75 75 76 74 82 80 85 78 66 74 98 98 94 89 90 93 78 80 76 78 80 83 84 91
95 90 85 81 80 81 79 74 76 76 79 80 82 80 80 75 77 75 74 81 88 88 84 74 74 97 95 92 93 89 88 91 81 79 82 86 88 90
88 89 91 90 85 81 85 83 80 79 77 78 80 78 82 82 79 74 73 82 88 83 82 78 86 93 95 92 89 88 87 87 83 79 81 89 85 86
89 88 92 93 91 80 83 84 84 83 80 77 81 84 85 83 86 83 82 83 86 81 78 76 87 94 96 95 81 86 92 86 85 87 84 90 87 85
91 93 93 92 90 87 86 81 79 85 82 80 88 92 94 90 90 88 86 93 88 81 80 70 79 90 94 96 94 86 89 91 88 85 83 86 85 84
93 92 93 92 91 90 94 94 94 91 90 95 93 95 96 94 92 90 90 92 92 80 83 78 71 93 92 92 97 92 79 80 84 83 86 89 87 85
94 93 93 93 93 93 95 96 94 94 94 94 96 98 98 99 98 96 94 94 87 86 82 74 68 83 87 94 93 94 88 78 78 86 81 79 87 85
95 93 94 94 94 93 86 93 94 96 94 94 95 96 100 100 94 92 93 90 86 85 82 83 75 81 86 89 94 94 81 80 82 90 93 92 88 84

GFSNE_sfc_rhum_063.txt.gz
RH
93 91 90 87 87 81 81 69 84 91 75 66 54 54 49 60 58 69 55 69 78 82 84 86 83 80 80 80 79 77 74 72 69 64 60 61 64 62
93 94 93 89 88 85 73 73 74 81 80 62 65 61 61 47 66 60 55 70 74 84 86 85 85 83 83 83 83 80 78 78 76 72 67 62 67 68
97 97 94 88 90 86 81 73 70 78 82 78 66 66 68 72 65 58 56 56 52 77 84 84 85 86 85 85 85 84 83 82 80 78 74 65 68 72
98 98 95 91 89 82 83 84 74 83 86 89 76 74 75 62 62 61 49 41 47 58 76 79 80 82 82 84 85 84 84 86 85 82 81 77 70 69
96 96 93 88 89 92 89 88 82 74 69 79 71 69 76 58 55 55 55 51 38 53 62 69 72 76 74 76 78 78 79 80 82 85 85 83 79 75
95 93 91 90 92 92 87 90 75 87 88 77 89 78 66 57 56 52 40 36 38 33 46 59 69 67 72 74 75 73 74 74 79 82 84 85 84 84
95 92 92 90 91 89 88 91 90 88 86 83 78 73 64 52 45 36 45 42 44 46 42 42 42 45 47 56 57 63 69 74 77 78 79 82 88 95
98 95 94 96 96 95 94 91 79 80 83 79 72 65 52 41 42 50 54 51 45 43 51 48 45 48 45 44 61 70 75 79 80 80 85 90 98 98
96 97 94 90 92 88 90 86 80 76 72 62 54 47 47 49 63 60 56 56 55 48 54 56 45 49 43 39 66 72 76 80 83 83 86 96 97 97
95 92 93 93 89 81 71 60 57 60 63 58 59 57 61 61 65 60 61 60 54 49 51 60 45 49 45 46 63 72 77 81 85 85 89 98 98 93
92 90 87 86 86 74 64 65 64 70 69 64 62 65 70 70 67 60 62 58 67 42 44 52 51 54 48 50 50 69 78 81 82 83 96 98 87 80
88 86 84 83 87 75 72 64 65 65 58 49 52 56 63 62 67 58 59 73 67 60 52 59 42 48 59 43 48 51 56 73 83 82 84 80 72 48
83 80 77 78 79 78 72 65 66 56 67 59 56 56 58 59 57 54 55 64 72 64 50 64 57 59 67 68 53 55 63 63 71 71 77 65 61 56
73 72 79 79 80 74 70 75 74 74 72 67 63 60 59 57 54 51 51 56 56 61 56 69 85 75 83 82 74 54 56 61 63 54 53 55 65 67
74 76 78 80 74 76 78 75 71 70 72 73 68 61 59 56 53 59 61 59 56 56 49 62 74 72 84 88 80 64 70 56 63 60 64 67 65 64
82 81 84 84 79 76 73 68 66 66 66 70 66 60 59 64 63 56 64 60 63 56 46 58 67 75 88 92 90 82 71 80 57 57 64 72 69 84
89 84 81 79 74 74 70 66 65 64 67 68 69 66 64 63 62 59 61 62 70 66 62 52 54 60 66 79 92 73 80 83 79 67 69 76 82 89
83 84 87 86 78 68 70 69 70 71 75 82 79 69 66 66 64 60 60 65 67 61 59 55 63 69 64 63 82 80 78 78 70 78 76 80 71 74
90 88 90 88 84 80 82 83 86 86 83 76 73 70 71 69 72 68 68 68 68 61 55 55 64 75 84 87 65 85 87 80 73 78 71 71 74 68
79 82 84 83 81 78 77 74 72 75 77 74 73 74 78 76 76 72 69 76 70 62 59 49 55 64 83 88 91 77 90 98 89 80 71 67 69 80
73 72 77 76 74 72 80 81 83 83 83 82 78 77 81 76 76 72 73 76 77 65 62 57 51 63 66 84 93 84 90 91 90 74 73 70 64 60
79 75 75 77 80 79 84 85 82 79 78 75 78 81 82 80 81 78 78 79 70 69 63 55 51 54 64 85 83 90 86 93 77 84 77 73 66 69
84 79 81 82 81 79 74 78 77 79 76 76 76 76 83 83 76 77 77 73 70 70 66 66 59 56 64 80 88 86 94 94 69 73 80 88 86 79

GFSNE_sfc_rhum_066.txt.gz
RH
77 76 81 87 90 86 82 74 79 86 77 60 53 50 43 45 55 50 52 67 72 77 80 81 78 75 75 74 74 73 72 70 69 68 67 66 64 61
75 81 78 82 87 86 83 81 79 84 87 55 53 49 49 48 60 54 53 68 73 79 83 82 82 79 77 76 74 72 70 69 69 68 68 68 68 67
83 91 92 93 95 94 93 86 82 78 84 70 56 56 63 66 58 57 54 56 48 79 79 80 80 81 81 82 80 78 74 73 72 71 70 69 67 66
92 96 97 97 98 97 94 93 88 79 67 81 71 68 74 64 57 59 52 38 38 61 70 74 77 79 80 81 84 80 79 78 75 74 73 71 70 70
92 94 96 98 97 95 93 92 88 82 82 88 72 75 66 72 66 62 53 47 34 52 56 65 66 69 74 74 75 78 80 78 77 77 76 80 81 79
92 94 95 96 95 94 95 92 89 91 88 86 87 84 73 65 63 57 48 38 30 19 36 50 59 56 67 72 74 71 72 73 73 73 77 79 82 82
91 93 92 94 96 92 90 93 91 90 92 84 80 81 75 70 64 46 36 33 32 34 34 35 34 35 38 57 57 65 71 71 70 71 74 80 83 86
93 94 96 98 98 97 94 91 85 87 87 86 84 83 74 60 49 40 39 39 38 28 41 40 36 37 35 36 55 65 69 74 76 77 79 84 84 93
98 98 99 98 97 92 95 94 91 87 83 76 79 71 58 45 44 45 45 43 42 36 40 44 38 40 34 27 61 69 74 74 76 82 86 86 87 94
97 96 94 98 94 91 86 81 75 68 63 51 57 52 52 47 48 46 49 50 47 43 42 53 39 39 35 37 58 68 73 78 80 83 84 86 90 98
98 94 94 94 96 87 83 82 80 77 78 70 68 71 73 71 65 48 53 52 62 37 34 43 42 43 38 39 39 57 72 75 79 80 82 82 92 98
95 97 95 94 99 96 96 92 86 69 56 52 59 60 57 56 68 53 45 62 58 53 37 48 41 38 44 36 37 42 44 71 76 79 81 85 88 66
94 96 97 96 95 94 82 76 73 60 63 53 48 45 44 46 43 44 41 45 57 56 43 51 47 44 48 48 40 45 55 57 60 58 81 79 80 65
93 93 96 96 93 83 76 76 79 75 75 63 54 50 45 44 41 38 40 43 44 47 44 58 71 58 62 62 62 47 51 51 57 60 62 66 71 69
94 97 96 87 80 81 85 85 83 78 78 71 64 57 47 42 44 55 55 48 47 49 40 50 59 57 59 63 58 57 63 53 60 66 68 68 71 76
96 90 81 80 81 87 84 75 64 65 69 67 60 51 52 60 61 53 58 55 57 49 40 47 53 62 66 56 54 62 59 72 56 59 68 72 70 77
95 92 90 85 71 66 69 70 64 58 63 67 71 72 69 64 62 56 56 57 63 60 55 43 42 47 50 54 68 56 60 72 65 69 77 89 82 82
92 91 91 90 81 73 71 66 65 69 67 69 73 70 68 66 61 56 53 57 59 52 49 45 50 52 50 45 57 61 57 68 66 67 73 93 77 76
87 83 88 88 83 71 72 71 74 72 73 68 69 70 70 67 67 62 60 59 59 52 45 44 50 60 65 72 48 64 91 86 75 80 75 82 77 69
73 78 80 76 70 65 64 64 65 69 71 69 73 74 76 72 70 64 60 66 60 52 49 41 44 46 60 77 86 76 67 81 83 96 83 68 72 80
65 68 74 71 69 65 79 76 79 78 78 79 74 72 76 70 68 63 63 65 66 56 52 46 41 52 51 58 84 77 73 76 83 89 80 87 70 58
73 72 70 73 75 73 77 80 78 75 73 71 75 77 77 73 73 70 70 70 60 60 53 45 42 43 49 57 68 82 68 74 95 96 92 84 72 69
78 72 75 75 73 72 66 72 71 73 71 71 72 70 76 76 68 69 73 69 66 63 59 59 54 49 51 52 63 74 75 82 88 89 86 80 81 78

GFSNE_sfc_rhum_069.txt.gz
RH
77 75 69 67 70 73 74 81 87 93 78 66 66 57 55 52 60 56 54 78 81 79 79 79 77 74 74 73 72 71 69 67 66 66 66 67 67 67
67 70 71 68 70 75 80 84 83 91 95 71 67 66 60 45 59 54 52 75 80 81 80 81 80 79 76 74 72 70 68 67 66 66 66 65 65 64
64 66 69 74 84 90 93 94 96 98 98 93 91 81 70 62 57 58 58 59 55 78 81 82 80 78 78 78 77 73 68 66 64 61 59 59 58 58
60 64 74 80 84 89 98 98 95 94 95 95 92 85 71 66 68 66 52 44 50 70 80 81 76 76 73 74 76 79 78 71 70 68 67 65 65 63
59 62 75 86 97 97 97 96 96 96 95 94 95 88 76 79 76 68 70 67 46 72 77 73 71 67 67 73 77 74 75 76 77 76 75 74 71 69
61 65 77 87 90 92 96 95 96 98 96 96 97 92 89 86 80 77 74 62 51 33 37 40 51 63 72 72 71 72 74 72 74 77 76 76 79 79
67 72 81 80 87 89 93 96 97 98 98 96 96 94 91 87 81 72 74 65 51 35 35 38 39 42 47 66 66 72 76 77 77 73 73 76 80 82
72 77 77 93 96 100 100 99 95 97 97 94 92 90 88 84 86 83 66 61 52 39 43 42 40 44 41 41 54 61 62 69 70 74 75 78 82 86
86 82 91 96 100 98 100 99 97 96 96 90 92 95 95 89 78 69 61 57 54 42 41 50 42 45 41 30 63 69 69 71 75 77 79 81 85 88
74 85 96 99 99 98 96 90 91 92 87 81 90 92 91 81 66 57 57 53 52 45 44 57 47 54 44 42 57 64 69 74 75 78 78 81 86 84
99 99 98 99 98 90 90 95 97 98 99 97 97 96 94 87 76 61 66 55 68 46 45 54 49 52 54 52 45 50 63 68 74 76 77 82 85 87
98 98 97 97 97 94 95 94 95 97 94 94 85 66 59 74 66 56 47 63 63 61 46 52 48 47 54 48 52 53 52 63 75 76 78 82 84 74
97 97 98 98 97 96 94 93 94 94 94 77 60 59 60 53 48 50 44 48 60 58 45 56 54 55 62 55 46 53 58 58 60 58 76 82 84 80
96 96 97 94 94 96 96 97 95 92 91 88 69 52 44 44 43 42 41 42 43 48 46 59 74 68 69 70 67 52 54 57 60 59 67 69 86 82
92 94 93 92 94 95 95 95 95 89 82 74 64 59 58 48 45 53 59 55 52 53 44 52 63 59 64 70 65 60 60 55 64 66 74 77 87 81
94 95 96 96 96 95 93 93 87 84 90 89 77 60 55 63 66 60 64 61 63 57 45 47 54 61 67 61 59 64 60 65 58 62 74 85 82 93
96 94 94 92 91 91 86 80 73 62 64 70 77 78 72 67 67 63 63 62 68 65 60 46 45 49 52 53 65 58 60 61 60 64 66 96 96 89
93 92 94 94 91 81 80 71 70 71 70 67 72 70 70 71 68 63 60 64 68 60 53 46 51 52 51 48 53 59 58 75 78 78 78 97 81 85
93 94 95 95 92 85 85 78 80 73 68 71 70 70 72 70 73 71 69 68 67 59 50 48 51 62 69 77 50 55 69 67 72 76 78 97 85 80
83 86 89 85 74 70 71 74 78 77 79 73 72 74 77 76 75 70 66 71 65 58 52 41 44 50 66 86 82 68 53 69 78 85 88 89 80 83
85 80 79 77 73 74 80 80 79 80 75 78 74 78 84 74 72 68 68 70 72 58 61 51 44 57 51 58 77 74 65 60 67 74 86 92 95 83
82 72 72 73 78 76 76 78 74 72 70 68 73 75 77 76 78 74 75 76 66 67 61 50 44 45 52 63 69 73 64 66 63 66 74 87 97 85
79 71 72 72 70 70 63 71 68 71 69 69 70 72 78 76 69 69 76 77 71 69 62 64 59 57 56 59 70 72 72 74 67 87 88 97 91 85